EW8702 Weather Reports


Display with metric or nautical units.
time (UTC)temp
F
wind
direction
speed
MPH
gust
MPH
rain 1hr
in
rain 24hr
in
rain mn
in
humidity
%
barometer
mb
20260504173122 69 330 1.0 4.0 0.00 0.00 0.00 32 1009.0
20260504172122 68 168 2.0 5.0 0.00 0.00 0.00 32 1009.2
20260504171122 67 163 2.0 4.0 0.00 0.00 0.00 34 1009.2
20260504170122 66 145 1.0 4.0 0.00 0.00 0.00 33 1009.4
20260504160122 59 163 1.0 4.0 0.00 0.00 0.00 34 1009.9
20260504151144 50 252 0.0 1.0 0.00 0.00 0.00 49 1010.5
20260504150123 48 254 0.0 2.0 0.00 0.00 0.00 52 1010.6
20260504141143 43 0 0.0 0.0 0.00 0.00 0.00 66 1010.9
20260504140122 43 0 0.0 0.0 0.00 0.00 0.00 66 1011.1
20260504130122 40 0 0.0 0.0 0.00 0.00 0.00 66 1010.7
20260504120122 42 93 1.0 2.0 0.00 0.00 0.00 62 1010.4
20260504110122 43 19 2.0 6.0 0.00 0.00 0.00 58 1010.3
20260504100122 42 4 2.0 5.0 0.00 0.00 0.00 58 1010.2
20260504081122 44 297 1.0 3.0 0.00 0.00 0.00 52 1010.2
20260504080122 45 0 0.0 1.0 0.00 0.00 0.00 51 1010.3
20260504070122 49 0 0.0 0.0 0.00 0.00 0.00 45 1010.4
20260504060143 50 319 1.0 4.0 0.00 0.00 0.00 39 1010.3
20260504050122 54 336 1.0 3.0 0.00 0.00 0.00 32 1010.3
20260504045122 55 336 2.0 4.0 0.00 0.00 0.00 31 1010.4
20260504044143 56 330 1.0 3.0 0.00 0.00 0.00 31 1010.4
20260504043143 56 0 0.0 1.0 0.00 0.00 0.00 33 1010.4
20260504042122 57 0 0.0 1.0 0.00 0.00 0.00 31 1010.5
20260504041143 57 328 0.0 2.0 0.00 0.00 0.00 29 1010.4
20260504040122 58 0 0.0 0.0 0.00 0.00 0.00 28 1010.3
20260504035122 58 329 1.0 3.0 0.00 0.00 0.00 27 1010.2
20260504034122 58 325 0.0 3.0 0.00 0.00 0.00 28 1010.2
20260504033122 59 330 2.0 4.0 0.00 0.00 0.00 28 1010.2
20260504032143 60 275 2.0 7.0 0.00 0.00 0.00 27 1010.1
20260504031122 61 279 2.0 6.0 0.00 0.00 0.00 26 1010.1
20260504030122 61 278 1.0 4.0 0.00 0.00 0.00 26 1010.0
20260504025122 62 331 3.0 6.0 0.00 0.00 0.00 23 1010.0
20260504024122 63 321 2.0 4.0 0.00 0.00 0.00 25 1010.0
20260504023122 64 277 0.0 2.0 0.00 0.00 0.00 25 1010.0
20260504022122 64 336 3.0 8.0 0.00 0.00 0.00 23 1009.9
20260504021143 65 294 1.0 5.0 0.00 0.00 0.00 24 1010.0
20260504020122 65 276 1.0 3.0 0.00 0.00 0.00 23 1010.0
20260504015122 66 275 2.0 3.0 0.00 0.00 0.00 24 1010.0
20260504014143 67 274 3.0 4.0 0.00 0.00 0.00 23 1010.1
20260504013122 68 273 2.0 3.0 0.00 0.00 0.00 23 1010.2
20260504012122 69 274 3.0 7.0 0.00 0.00 0.00 22 1010.3
20260504011122 69 279 2.0 4.0 0.00 0.00 0.00 20 1010.3
20260504010122 69 276 1.0 4.0 0.00 0.00 0.00 17 1010.5
20260504005122 70 228 2.0 6.0 0.00 0.00 0.00 20 1010.6
20260504004122 70 215 0.0 2.0 0.00 0.00 0.00 21 1010.7
20260504003122 70 215 1.0 2.0 0.00 0.00 0.00 14 1010.8
20260504002122 70 206 1.0 4.0 0.00 0.00 0.00 18 1010.8
20260504001122 71 261 2.0 4.0 0.00 0.00 0.00 20 1010.8
20260504000122 71 257 1.0 3.0 0.00 0.00 0.00 19 1010.9
20260503235143 70 274 1.0 3.0 0.00 0.00 0.00 16 1010.9
20260503234122 70 272 2.0 4.0 0.00 0.00 0.00 16 1011.0
20260503233122 70 269 1.0 2.0 0.00 0.00 0.00 20 1011.1
20260503232122 70 268 4.0 8.0 0.00 0.00 0.00 15 1011.2
20260503231122 71 262 2.0 6.0 0.00 0.00 0.00 20 1011.3
20260503230122 71 212 1.0 4.0 0.00 0.00 0.00 16 1011.3
20260503225122 70 273 3.0 8.0 0.00 0.00 0.00 20 1011.5
20260503224122 71 271 4.0 8.0 0.00 0.00 0.00 13 1011.6
20260503223143 71 245 3.0 7.0 0.00 0.00 0.00 15 1011.8
20260503222122 72 247 4.0 9.0 0.00 0.00 0.00 14 1011.8
20260503221122 72 263 5.0 10.0 0.00 0.00 0.00 16 1011.9
20260503220122 72 262 3.0 8.0 0.00 0.00 0.00 15 1012.2
20260503215122 72 226 2.0 5.0 0.00 0.00 0.00 19 1012.5
20260503214122 72 270 5.0 11.0 0.00 0.00 0.00 18 1012.6
20260503213122 73 245 4.0 8.0 0.00 0.00 0.00 17 1012.8
20260503212121 73 261 7.0 14.0 0.00 0.00 0.00 16 1012.8
20260503211122 73 254 5.0 12.0 0.00 0.00 0.00 22 1012.9
20260503210143 72 250 4.0 9.0 0.00 0.00 0.00 15 1013.0
20260503205122 72 264 7.0 18.0 0.00 0.00 0.00 15 1013.0
20260503204121 73 250 4.0 9.0 0.00 0.00 0.00 14 1013.1
20260503203122 73 245 5.0 10.0 0.00 0.00 0.00 16 1013.2
20260503202143 73 252 5.0 12.0 0.00 0.00 0.00 15 1013.4
20260503201143 73 251 5.0 11.0 0.00 0.00 0.00 15 1013.4
20260503200122 73 228 4.0 9.0 0.00 0.00 0.00 22 1013.5
20260503195122 72 247 4.0 8.0 0.00 0.00 0.00 18 1013.7
20260503194122 72 258 4.0 9.0 0.00 0.00 0.00 18 1013.9
20260503193122 72 257 4.0 8.0 0.00 0.00 0.00 20 1014.0
20260503192122 72 254 4.0 11.0 0.00 0.00 0.00 14 1014.0
20260503191122 73 276 3.0 8.0 0.00 0.00 0.00 18 1014.1
20260503190122 72 10 2.0 3.0 0.00 0.00 0.00 23 1014.4
20260503185122 72 22 1.0 3.0 0.00 0.00 0.00 23 1014.5
20260503184143 71 100 2.0 3.0 0.00 0.00 0.00 25 1014.8
20260503183122 71 145 2.0 4.0 0.00 0.00 0.00 21 1014.9
20260503182122 70 134 1.0 4.0 0.00 0.00 0.00 28 1015.1
20260503181122 69 128 2.0 7.0 0.00 0.00 0.00 24 1015.3
20260503180122 68 133 2.0 4.0 0.00 0.00 0.00 25 1015.4
20260503175121 68 159 2.0 5.0 0.00 0.00 0.00 28 1015.6
20260503174122 66 162 1.0 5.0 0.00 0.00 0.00 30 1015.8